Satellite-Ground Cal/Val Region Overpasses Predictions

Prediction of Satellite NPP Overpassing Cal/Val Region: PacNW

Region Location: (Latitude: 10.00, Longitude: 139.50) to (Latitude: 22.70, Longitude: 165.60).

Table of predicted overpasses for the next 14.0 days since TLE Epoch: 8/24/2013
Interval Starting Time Starting Location Ending Time Ending Location
1 08/24/2013 14:39:51 ( 22.69, 165.02) 08/24/2013 14:43:27 ( 10.01, 162.00)
2 08/24/2013 16:21:21 ( 22.69, 139.64) 08/24/2013 16:21:30 ( 22.16, 139.51)
3 08/25/2013 03:30:26 ( 10.02, 147.15) 08/25/2013 03:34:02 ( 22.70, 144.12)
4 08/25/2013 16:02:20 ( 22.68, 144.40) 08/25/2013 16:05:55 ( 10.06, 141.39)
5 08/26/2013 03:11:26 ( 10.04, 151.90) 08/26/2013 03:15:01 ( 22.66, 148.89)
6 08/26/2013 15:43:20 ( 22.66, 149.15) 08/26/2013 15:46:55 ( 10.04, 146.14)
7 08/27/2013 02:52:26 ( 10.05, 156.65) 08/27/2013 02:56:00 ( 22.67, 153.64)
8 08/27/2013 15:24:19 ( 22.65, 153.90) 08/27/2013 15:27:54 ( 10.02, 150.89)
9 08/28/2013 02:33:24 ( 10.01, 161.42) 08/28/2013 02:37:00 ( 22.68, 158.40)
10 08/28/2013 15:05:18 ( 22.69, 158.67) 08/28/2013 15:08:54 ( 10.01, 155.64)
11 08/29/2013 02:15:07 ( 12.55, 165.59) 08/29/2013 02:17:59 ( 22.64, 163.16)
12 08/29/2013 03:55:54 ( 10.02, 140.80) 08/29/2013 03:57:28 ( 15.55, 139.51)
13 08/29/2013 14:46:17 ( 22.67, 163.42) 08/29/2013 14:49:52 ( 10.05, 160.41)
14 08/30/2013 03:36:53 ( 10.04, 145.55) 08/30/2013 03:40:28 ( 22.66, 142.54)
15 08/30/2013 14:30:20 ( 11.91, 165.59) 08/30/2013 14:30:52 ( 10.03, 165.16)
16 08/30/2013 16:08:47 ( 22.65, 142.79) 08/30/2013 16:12:22 ( 10.03, 139.79)
17 08/31/2013 03:17:53 ( 10.06, 150.30) 08/31/2013 03:21:28 ( 22.68, 147.29)
18 08/31/2013 15:49:45 ( 22.69, 147.56) 08/31/2013 15:53:21 ( 10.01, 144.54)
19 09/01/2013 02:58:51 ( 10.02, 155.06) 09/01/2013 03:02:27 ( 22.70, 152.04)
20 09/01/2013 15:30:45 ( 22.67, 152.31) 09/01/2013 15:34:20 ( 10.05, 149.30)
21 09/02/2013 02:39:51 ( 10.04, 159.82) 09/02/2013 02:43:26 ( 22.66, 156.81)
22 09/02/2013 15:11:44 ( 22.65, 157.06) 09/02/2013 15:15:19 ( 10.03, 154.05)
23 09/03/2013 02:20:50 ( 10.06, 164.57) 09/03/2013 02:24:25 ( 22.68, 161.56)
24 09/03/2013 14:52:43 ( 22.69, 161.83) 09/03/2013 14:56:19 ( 10.01, 158.81)
25 09/04/2013 03:43:19 ( 10.02, 143.96) 09/04/2013 03:46:55 ( 22.70, 140.93)
26 09/04/2013 14:34:51 ( 18.68, 165.60) 09/04/2013 14:37:18 ( 10.05, 163.57)
27 09/04/2013 16:15:12 ( 22.67, 141.20) 09/04/2013 16:17:11 ( 15.69, 139.51)
28 09/05/2013 03:24:18 ( 10.04, 148.71) 09/05/2013 03:27:53 ( 22.66, 145.70)
29 09/05/2013 15:56:12 ( 22.65, 145.96) 09/05/2013 15:59:47 ( 10.03, 142.95)
30 09/06/2013 03:05:17 ( 10.00, 153.47) 09/06/2013 03:08:53 ( 22.68, 150.45)
31 09/06/2013 15:37:11 ( 22.68, 150.72) 09/06/2013 15:40:47 ( 10.00, 147.70)


NCC Satellite Cal/Val Overpasses Prediction Service
